Airfield :
LOGIN :

Register | Disclaimer

   EN    FR    IT 

 










Legend :    VFR   Marginal VFR   IFR   Intensive IFR   Very Intensive IFR
Visi :
Ceiling :
>= 8 km
>= 3000ft
5 to 8 km
1000 to 3000 ft
1500m to 5 km
500 to 1000 ft
800 to 1500m
200 to 500 ft
< 800m
< 200 ft
Symbols :   Thunderstorms  Fog  Heavy snow  Heavy precipitations  Wind > 20 kt
SIGMETs :     Misc.  Thunderstorms  Icing  Turbulence  Mountain Waves  Volcanic Ashes






- Airport Elevation : 1504 ft
- IATA code : PNA


LEPP - Noain Pamplona

CURRENT METAR :
  • 140930Z 31002KT CAVOK 12/03 Q1020

EXPIRED METARs :
  • 140900Z 26001KT CAVOK 11/02 Q1020
  • 140830Z 31001KT CAVOK 09/02 Q1020
  • 140800Z 03001KT CAVOK 08/03 Q1020
  • 140730Z 33001KT CAVOK 06/02 Q1021
  • 140700Z VRB02KT CAVOK 05/02 Q1021

TAF TAF LEPP
Valid from the 14 at 09:00 until the 15 at 09:00 UTC


140800Z 1409/1509 35009KT 9999 FEW040 TX19/1414Z TN04/1501Z
PROB40
TEMPO 1501/1506 BKN010



MET'MAP, your aeronautical weather chart ! - Copyright ORBIFLY December 2007 - Disclaimer

ORBIFLY MET'MAP TEAM :

Programming & Development : Alexandra Zaïnal
Concept & original design : Baudouin d'Aumeries
Assistance for programming : Marc-Olivier Méhu
Technical & hardware support : Manuel Goepfert

Contact : metmap@orbifly.com




SOURCES & CREDITS :

   NOAA